Location: *
(40.7765°S, 106.5327°E)
Time: 15:03:10
(UTC+00:00)

AQUARIUS - Pass Details

Date: 26 May 2022
Orbit: 648 x 651 km, 98.0° (Epoch: 04 July)

Event Time Altitude Azimuth Distance (km) Brightness Sun altitude
Exits shadow 11:35:33 14° 174° (S) 1,806 6.3 -21.9°
Maximum altitude 11:39:22 67° 255° (WSW) 718 4.5 -22.6°
Drops below altitude 10° 11:43:50 10° 336° (NNW) 2,063 7.1 -23.4°
Sets 11:46:03 0° 339° (NNW) 2,967 7.9 -23.8°
